TimeCDT,TemperatureF,Dew PointF,Humidity,Sea Level PressureIn,VisibilityMPH,Wind Direction,Wind SpeedMPH,Gust SpeedMPH,PrecipitationIn,Events,Conditions,WindDirDegrees,DateUTC
12:15 AM,73.4,55.4,53,30.04,10.0,NE,4.6,-,N/A,,Mostly Cloudy,50,2013-06-29 05:15:00
12:35 AM,75.2,53.6,47,30.05,10.0,NE,4.6,-,N/A,,Scattered Clouds,50,2013-06-29 05:35:00
12:55 AM,71.6,55.4,57,30.06,10.0,WSW,4.6,-,N/A,,Scattered Clouds,250,2013-06-29 05:55:00
1:15 AM,71.6,55.4,57,30.06,10.0,Calm,Calm,-,N/A,,Partly Cloudy,0,2013-06-29 06:15:00
1:35 AM,73.4,55.4,53,30.05,10.0,NNW,3.5,-,N/A,,Clear,330,2013-06-29 06:35:00
1:55 AM,69.8,55.4,60,30.06,10.0,NNW,3.5,-,N/A,,Clear,330,2013-06-29 06:55:00
2:15 AM,69.8,57.2,64,30.06,10.0,NW,3.5,-,N/A,,Clear,310,2013-06-29 07:15:00
2:35 AM,69.8,55.4,60,30.06,10.0,NNW,4.6,-,N/A,,Clear,340,2013-06-29 07:35:00
2:55 AM,69.8,53.6,56,30.06,10.0,North,5.8,-,N/A,,Clear,350,2013-06-29 07:55:00
3:15 AM,68.0,53.6,60,30.06,10.0,North,4.6,-,N/A,,Clear,360,2013-06-29 08:15:00
3:35 AM,66.2,53.6,64,30.07,10.0,NW,5.8,-,N/A,,Clear,310,2013-06-29 08:35:00
3:55 AM,66.2,55.4,68,30.07,10.0,NW,5.8,-,N/A,,Clear,310,2013-06-29 08:55:00
4:15 AM,66.2,55.4,68,30.07,10.0,NW,4.6,-,N/A,,Clear,310,2013-06-29 09:15:00
4:35 AM,64.4,55.4,73,30.07,10.0,NW,5.8,-,N/A,,Clear,320,2013-06-29 09:35:00
4:55 AM,66.2,55.4,68,30.07,10.0,NW,5.8,-,N/A,,Clear,320,2013-06-29 09:55:00
5:15 AM,64.4,53.6,68,30.07,10.0,WNW,4.6,-,N/A,,Clear,300,2013-06-29 10:15:00
5:35 AM,62.6,55.4,77,30.07,10.0,NW,4.6,-,N/A,,Clear,320,2013-06-29 10:35:00
5:55 AM,64.4,53.6,68,30.07,10.0,NW,5.8,-,N/A,,Scattered Clouds,310,2013-06-29 10:55:00
6:15 AM,64.4,53.6,68,30.08,10.0,NW,6.9,-,N/A,,Partly Cloudy,310,2013-06-29 11:15:00
6:35 AM,64.4,55.4,73,30.07,10.0,NW,6.9,-,N/A,,Clear,320,2013-06-29 11:35:00
6:55 AM,66.2,55.4,68,30.08,10.0,NW,9.2,-,N/A,,Clear,310,2013-06-29 11:55:00
7:15 AM,66.2,55.4,68,30.08,10.0,NW,6.9,-,N/A,,Clear,310,2013-06-29 12:15:00
7:35 AM,68.0,55.4,64,30.09,10.0,NW,8.1,-,N/A,,Clear,310,2013-06-29 12:35:00
7:55 AM,69.8,55.4,60,30.08,10.0,NW,8.1,-,N/A,,Clear,320,2013-06-29 12:55:00
8:15 AM,69.8,57.2,64,30.08,10.0,NW,5.8,-,N/A,,Clear,310,2013-06-29 13:15:00
8:35 AM,73.4,57.2,57,30.08,10.0,NW,6.9,-,N/A,,Scattered Clouds,310,2013-06-29 13:35:00
8:55 AM,77.0,57.2,50,30.09,10.0,NW,6.9,-,N/A,,Partly Cloudy,310,2013-06-29 13:55:00
9:15 AM,78.8,57.2,47,30.09,10.0,NW,6.9,-,N/A,,Clear,320,2013-06-29 14:15:00
9:35 AM,80.6,55.4,42,30.08,10.0,WNW,6.9,-,N/A,,Clear,300,2013-06-29 14:35:00
9:55 AM,80.6,55.4,42,30.07,10.0,NNW,4.6,-,N/A,,Clear,330,2013-06-29 14:55:00
10:15 AM,82.4,55.4,39,30.06,10.0,NNW,12.7,-,N/A,,Clear,340,2013-06-29 15:15:00
10:35 AM,84.2,53.6,35,30.06,10.0,NNW,9.2,-,N/A,,Clear,340,2013-06-29 15:35:00
10:55 AM,84.2,51.8,33,30.05,10.0,NNW,11.5,19.6,N/A,,Clear,340,2013-06-29 15:55:00
11:15 AM,86.0,51.8,31,30.05,10.0,NNW,16.1,19.6,N/A,,Clear,340,2013-06-29 16:15:00
11:35 AM,86.0,51.8,31,30.05,10.0,North,18.4,24.2,N/A,,Clear,350,2013-06-29 16:35:00
11:55 AM,87.8,53.6,31,30.05,10.0,NNW,19.6,-,N/A,,Clear,340,2013-06-29 16:55:00
12:15 PM,87.8,51.8,29,30.05,10.0,North,23.0,27.6,N/A,,Clear,10,2013-06-29 17:15:00
12:35 PM,87.8,51.8,29,30.04,10.0,North,15.0,20.7,N/A,,Clear,360,2013-06-29 17:35:00
12:55 PM,87.8,53.6,31,30.04,10.0,North,16.1,23.0,N/A,,Partly Cloudy,360,2013-06-29 17:55:00
1:15 PM,89.6,53.6,29,30.04,10.0,North,12.7,25.3,N/A,,Partly Cloudy,10,2013-06-29 18:15:00
1:35 PM,87.8,51.8,29,30.03,10.0,North,15.0,23.0,N/A,,Mostly Cloudy,350,2013-06-29 18:35:00
1:55 PM,87.8,51.8,29,30.03,10.0,North,15.0,20.7,N/A,,Overcast,10,2013-06-29 18:55:00
2:15 PM,86.0,51.8,31,30.03,10.0,North,15.0,18.4,N/A,,Overcast,360,2013-06-29 19:15:00
2:35 PM,87.8,53.6,31,30.02,10.0,NNE,13.8,17.3,N/A,,Mostly Cloudy,20,2013-06-29 19:35:00
2:55 PM,87.8,51.8,29,30.01,10.0,North,18.4,-,N/A,,Mostly Cloudy,350,2013-06-29 19:55:00
3:15 PM,87.8,53.6,31,30.01,10.0,North,19.6,-,N/A,,Mostly Cloudy,360,2013-06-29 20:15:00
3:35 PM,89.6,53.6,29,30.00,9.0,North,25.3,-,N/A,,Mostly Cloudy,10,2013-06-29 20:35:00
3:55 PM,89.6,53.6,29,30.00,8.0,North,19.6,29.9,N/A,,Scattered Clouds,360,2013-06-29 20:55:00
4:15 PM,87.8,51.8,29,29.99,10.0,North,17.3,25.3,N/A,,Partly Cloudy,10,2013-06-29 21:15:00
4:35 PM,89.6,53.6,29,29.99,10.0,North,19.6,-,N/A,,Partly Cloudy,360,2013-06-29 21:35:00
4:55 PM,89.6,53.6,29,29.98,10.0,North,21.9,26.5,N/A,,Clear,360,2013-06-29 21:55:00
5:15 PM,87.8,53.6,31,29.98,10.0,North,18.4,23.0,N/A,,Partly Cloudy,360,2013-06-29 22:15:00
5:35 PM,89.6,53.6,29,29.97,10.0,NNE,20.7,27.6,N/A,,Mostly Cloudy,20,2013-06-29 22:35:00
5:55 PM,87.8,53.6,31,29.97,10.0,NNE,18.4,27.6,N/A,,Mostly Cloudy,30,2013-06-29 22:55:00
6:15 PM,87.8,51.8,29,29.97,10.0,North,16.1,25.3,N/A,,Overcast,10,2013-06-29 23:15:00
6:35 PM,87.8,51.8,29,29.97,10.0,NNE,20.7,24.2,N/A,,Scattered Clouds,20,2013-06-29 23:35:00
6:55 PM,86.0,50.0,29,29.97,10.0,NNE,20.7,27.6,N/A,,Clear,30,2013-06-29 23:55:00
7:15 PM,84.2,48.2,29,29.97,10.0,NNE,17.3,24.2,N/A,,Clear,20,2013-06-30 00:15:00
7:35 PM,84.2,46.4,27,29.97,10.0,NNE,18.4,24.2,N/A,,Clear,30,2013-06-30 00:35:00
7:55 PM,84.2,46.4,27,29.98,10.0,NNE,16.1,-,N/A,,Clear,20,2013-06-30 00:55:00
8:15 PM,82.4,44.6,26,29.99,10.0,NE,15.0,-,N/A,,Clear,40,2013-06-30 01:15:00
8:35 PM,80.6,44.6,28,29.99,10.0,NE,11.5,-,N/A,,Clear,40,2013-06-30 01:35:00
8:55 PM,78.8,44.6,30,29.99,10.0,NE,9.2,-,N/A,,Clear,50,2013-06-30 01:55:00
9:15 PM,77.0,44.6,32,30.00,10.0,NE,10.4,-,N/A,,Clear,40,2013-06-30 02:15:00
9:35 PM,75.2,44.6,34,30.01,10.0,NE,8.1,-,N/A,,Clear,40,2013-06-30 02:35:00
9:55 PM,73.4,44.6,36,30.01,10.0,NNE,6.9,-,N/A,,Clear,30,2013-06-30 02:55:00
10:15 PM,71.6,44.6,38,30.02,10.0,NNE,8.1,-,N/A,,Clear,30,2013-06-30 03:15:00
10:35 PM,69.8,46.4,43,30.03,10.0,NNE,5.8,-,N/A,,Clear,20,2013-06-30 03:35:00
10:55 PM,69.8,46.4,43,30.04,10.0,NNE,6.9,-,N/A,,Clear,30,2013-06-30 03:55:00
11:15 PM,69.8,46.4,43,30.04,10.0,NNE,8.1,-,N/A,,Clear,30,2013-06-30 04:15:00
11:35 PM,69.8,46.4,43,30.04,10.0,NNE,11.5,-,N/A,,Clear,30,2013-06-30 04:35:00
11:55 PM,69.8,46.4,43,30.04,10.0,NNE,11.5,-,N/A,,Clear,30,2013-06-30 04:55:00